,,,PA_Meas_PMT16A,,PR_Meas_QMR101_102,,RH_Meas_QMH101,,SR_Meas_QMS101,,TA_Meas_QMH101,,GenWind,,GenWind,
date,time,status,PA,status,PR,status,RH,status,SR,status,TA,status,DirAvg,status,SpdAvg,
2009-09-15, 00:00:04,VALID,1000.93,VALID,0,VALID,90.4034,VALID,0,VALID,22.4721,VALID,8,VALID,0.669922,
2009-09-15, 00:01:04,VALID,1000.93,VALID,0,VALID,90.6399,VALID,0,VALID,22.5111,VALID,14,VALID,0.811328,
2009-09-15, 00:02:04,VALID,1000.91,VALID,0,VALID,90.472,VALID,0,VALID,22.5111,VALID,1,VALID,0.691406,
2009-09-15, 00:03:04,VALID,1000.92,VALID,0,VALID,90.35,VALID,0,VALID,22.5306,VALID,338,VALID,0.653516,
2009-09-15, 00:04:04,VALID,1000.89,VALID,0,VALID,90.5941,VALID,0,VALID,22.5501,VALID,338,VALID,0.543359,
2009-09-15, 00:05:04,VALID,1000.91,VALID,0,VALID,90.5178,VALID,0,VALID,22.5696,VALID,338,VALID,0.5375,
2009-09-15, 00:06:04,VALID,1000.88,VALID,0,VALID,90.3271,VALID,0,VALID,22.5696,VALID,338,VALID,0.432031,
2009-09-15, 00:07:04,VALID,1000.85,VALID,0,VALID,90.4034,VALID,0,VALID,22.5696,VALID,338,VALID,0.508594,
2009-09-15, 00:08:04,VALID,1000.85,VALID,0,VALID,90.678,VALID,0,VALID,22.6087,VALID,315,VALID,0.414844,
2009-09-15, 00:09:04,VALID,1000.81,VALID,0,VALID,90.4949,VALID,0,VALID,22.6087,VALID,314,VALID,0.308203,
2009-09-15, 00:10:04,VALID,1000.78,VALID,0,VALID,90.472,VALID,0,VALID,22.6299,VALID,314,VALID,0.255859,
2009-09-15, 00:11:04,VALID,1000.77,VALID,0,VALID,90.4644,VALID,0,VALID,22.6494,VALID,314,VALID,0.187891,
2009-09-15, 00:12:04,VALID,1000.75,VALID,0,VALID,90.6704,VALID,0,VALID,22.6672,VALID,314,VALID,0.235547,
2009-09-15, 00:13:04,VALID,1000.74,VALID,0,VALID,90.6857,VALID,0,VALID,22.7062,VALID,314,VALID,0.218359,
2009-09-15, 00:14:04,VALID,1000.72,VALID,0,VALID,90.7238,VALID,0,VALID,22.8055,VALID,314,VALID,0.100391,
2009-09-15, 00:15:04,VALID,1000.75,VALID,0,VALID,90.6017,VALID,0,VALID,22.8427,VALID,314,VALID,0.282422,
2009-09-15, 00:16:04,VALID,1000.73,VALID,0,VALID,90.1592,VALID,0,VALID,22.903,VALID,314,VALID,0.257422,
2009-09-15, 00:17:04,VALID,1000.74,VALID,0,VALID,89.8998,VALID,0,VALID,22.903,VALID,314,VALID,0.247266,
2009-09-15, 00:18:04,VALID,1000.72,VALID,0,VALID,90.0448,VALID,0,VALID,22.942,VALID,316,VALID,0.390234,
2009-09-15, 00:19:04,VALID,1000.72,VALID,0,VALID,88.8774,VALID,0,VALID,22.9615,VALID,71,VALID,0.46875,
2009-09-15, 00:20:04,VALID,1000.71,VALID,0,VALID,88.6257,VALID,0,VALID,22.9013,VALID,78,VALID,0.321094,
2009-09-15, 00:21:04,VALID,1000.71,VALID,0,VALID,88.6943,VALID,0,VALID,22.8835,VALID,78,VALID,0.0175781,
2009-09-15, 00:22:04,VALID,1000.73,VALID,0,VALID,88.8851,VALID,0,VALID,22.8835,VALID,78,VALID,0.132813,
2009-09-15, 00:23:04,VALID,1000.74,VALID,0,VALID,88.9843,VALID,0,VALID,22.8818,VALID,96,VALID,0.341406,
2009-09-15, 00:24:04,VALID,1000.73,VALID,0,VALID,89.5412,VALID,0,VALID,22.942,VALID,136,VALID,0.898438,
2009-09-15, 00:25:04,VALID,1000.71,VALID,0,VALID,89.4726,VALID,0,VALID,22.9988,VALID,125,VALID,1.02891,
2009-09-15, 00:26:04,VALID,1000.73,VALID,0,VALID,89.3047,VALID,0,VALID,23.0786,VALID,120,VALID,0.780078,
2009-09-15, 00:27:04,VALID,1000.73,VALID,0,VALID,88.9843,VALID,0,VALID,23.1159,VALID,120,VALID,0.7875,
2009-09-15, 00:28:04,VALID,1000.73,VALID,0,VALID,88.7325,VALID,0,VALID,23.1762,VALID,94,VALID,0.865625,
2009-09-15, 00:29:04,VALID,1000.71,VALID,0,VALID,88.206,VALID,0,VALID,23.1939,VALID,92,VALID,0.642187,
2009-09-15, 00:30:04,VALID,1000.71,VALID,0,VALID,87.6491,VALID,0,VALID,23.1939,VALID,94,VALID,0.402734,
2009-09-15, 00:31:04,VALID,1000.72,VALID,0,VALID,87.7101,VALID,0,VALID,23.1744,VALID,91,VALID,1.01016,
2009-09-15, 00:32:04,VALID,1000.7,VALID,0,VALID,87.8322,VALID,0,VALID,23.2152,VALID,114,VALID,0.975,
2009-09-15, 00:33:04,VALID,1000.7,VALID,0,VALID,87.7101,VALID,0,VALID,23.2542,VALID,125,VALID,0.617969,
2009-09-15, 00:34:04,VALID,1000.68,VALID,0,VALID,87.5804,VALID,0,VALID,23.2524,VALID,103,VALID,0.44375,
2009-09-15, 00:35:04,VALID,1000.67,VALID,0,VALID,87.4278,VALID,0,VALID,23.2329,VALID,92,VALID,0.800391,
2009-09-15, 00:36:04,VALID,1000.65,VALID,0,VALID,87.527,VALID,0,VALID,23.2524,VALID,69,VALID,0.548828,
2009-09-15, 00:37:04,VALID,1000.64,VALID,0,VALID,86.8861,VALID,0,VALID,23.1939,VALID,36,VALID,0.308984,
2009-09-15, 00:38:04,VALID,1000.61,VALID,0,VALID,86.7869,VALID,0,VALID,23.0981,VALID,5,VALID,1.05938,
2009-09-15, 00:39:04,VALID,1000.61,VALID,0,VALID,87.7864,VALID,0,VALID,22.9598,VALID,1,VALID,1.05273,
2009-09-15, 00:40:04,VALID,1000.62,VALID,0,VALID,88.2594,VALID,0,VALID,22.8818,VALID,1,VALID,0.756641,
2009-09-15, 00:41:04,VALID,1000.62,VALID,0,VALID,88.4731,VALID,0,VALID,22.8055,VALID,1,VALID,0.784375,
2009-09-15, 00:42:04,VALID,1000.62,VALID,0,VALID,88.6562,VALID,0,VALID,22.7062,VALID,1,VALID,0.843359,
2009-09-15, 00:43:04,VALID,1000.64,VALID,0,VALID,88.8469,VALID,0,VALID,22.6689,VALID,1,VALID,0.925391,
2009-09-15, 00:44:04,VALID,1000.63,VALID,0,VALID,89.0606,VALID,0,VALID,22.5696,VALID,1,VALID,0.981641,
2009-09-15, 00:45:04,VALID,1000.63,VALID,0,VALID,89.5794,VALID,0,VALID,22.5696,VALID,353,VALID,0.777734,
2009-09-15, 00:46:04,VALID,1000.62,VALID,0,VALID,89.6862,VALID,0,VALID,22.5501,VALID,353,VALID,0.933203,
2009-09-15, 00:47:04,VALID,1000.58,VALID,0,VALID,89.1368,VALID,0,VALID,22.4916,VALID,21,VALID,0.55,
2009-09-15, 00:48:04,VALID,1000.59,VALID,0,VALID,90.2279,VALID,0,VALID,22.5323,VALID,2,VALID,0.948438,
2009-09-15, 00:49:04,VALID,1000.58,VALID,0,VALID,90.3576,VALID,0,VALID,22.6282,VALID,17,VALID,0.56875,
2009-09-15, 00:50:04,VALID,1000.58,VALID,0,VALID,89.5489,VALID,0,VALID,22.6282,VALID,120,VALID,0.317969,
2009-09-15, 00:51:04,VALID,1000.54,VALID,0,VALID,89.732,VALID,0,VALID,22.6867,VALID,120,VALID,0,
2009-09-15, 00:52:04,VALID,1000.55,VALID,0,VALID,89.6099,VALID,0,VALID,22.7257,VALID,120,VALID,0.00195313,
2009-09-15, 00:53:04,VALID,1000.53,VALID,0,VALID,89.5183,VALID,0,VALID,22.7452,VALID,120,VALID,0.000390625,
2009-09-15, 00:54:04,VALID,1000.5,VALID,0,VALID,89.3428,VALID,0,VALID,22.7647,VALID,120,VALID,0,
2009-09-15, 00:55:04,VALID,1000.52,VALID,0,VALID,89.2284,VALID,0,VALID,22.7842,VALID,120,VALID,0,
2009-09-15, 00:56:04,VALID,1000.51,VALID,0,VALID,89.2589,VALID,0,VALID,22.8037,VALID,120,VALID,0,
2009-09-15, 00:57:04,VALID,1000.54,VALID,0,VALID,89.2589,VALID,0,VALID,22.8445,VALID,120,VALID,0,
2009-09-15, 00:58:04,VALID,1000.5,VALID,0,VALID,89.442,VALID,0,VALID,22.8835,VALID,120,VALID,0.291016,
2009-09-15, 00:59:04,VALID,1000.51,VALID,0,VALID,89.2284,VALID,0,VALID,22.942,VALID,74,VALID,0.527344,
2009-09-15, 01:00:04,VALID,1000.51,VALID,0,VALID,88.4044,VALID,0,VALID,22.9811,VALID,20,VALID,0.802734,
2009-09-15, 01:01:04,VALID,1000.53,VALID,0,VALID,87.6186,VALID,0,VALID,22.903,VALID,5,VALID,0.821484,
2009-09-15, 01:02:04,VALID,1000.53,VALID,0,VALID,87.588,VALID,0,VALID,22.7842,VALID,358,VALID,0.678906,
2009-09-15, 01:03:04,VALID,1000.52,VALID,0,VALID,88,VALID,0,VALID,22.6672,VALID,358,VALID,0.491016,
2009-09-15, 01:04:04,VALID,1000.52,VALID,0,VALID,88.5494,VALID,0,VALID,22.6087,VALID,353,VALID,0.509766,
2009-09-15, 01:05:04,VALID,1000.51,VALID,0,VALID,88.8164,VALID,0,VALID,22.5696,VALID,353,VALID,0.582031,
2009-09-15, 01:06:04,VALID,1000.47,VALID,0,VALID,89.1826,VALID,0,VALID,22.4721,VALID,353,VALID,0.663672,
2009-09-15, 01:07:04,VALID,1000.48,VALID,0,VALID,89.9685,VALID,0,VALID,22.4933,VALID,353,VALID,0.655469,
2009-09-15, 01:08:04,VALID,1000.43,VALID,0,VALID,90.1211,VALID,0,VALID,22.5323,VALID,353,VALID,0.728906,
2009-09-15, 01:09:04,VALID,1000.42,VALID,0,VALID,90.4034,VALID,0,VALID,22.5501,VALID,354,VALID,0.865234,
2009-09-15, 01:10:04,VALID,1000.41,VALID,0,VALID,90.4034,VALID,0,VALID,22.5501,VALID,354,VALID,0.747656,
2009-09-15, 01:11:04,VALID,1000.4,VALID,0,VALID,90.1592,VALID,0,VALID,22.5909,VALID,354,VALID,0.677344,
2009-09-15, 01:12:04,VALID,1000.4,VALID,0,VALID,89.7167,VALID,0,VALID,22.4916,VALID,51,VALID,0.703906,
2009-09-15, 01:13:04,VALID,1000.37,VALID,0,VALID,89.6251,VALID,0,VALID,22.4543,VALID,67,VALID,0.919531,
2009-09-15, 01:14:04,VALID,1000.36,VALID,0,VALID,89.3047,VALID,0,VALID,22.3551,VALID,68,VALID,0.7375,
2009-09-15, 01:15:04,VALID,1000.35,VALID,0,VALID,89.8922,VALID,0,VALID,22.3568,VALID,68,VALID,0.440234,
2009-09-15, 01:16:04,VALID,1000.29,VALID,0,VALID,89.8311,VALID,0,VALID,22.3356,VALID,68,VALID,0.357812,
2009-09-15, 01:17:04,VALID,1000.32,VALID,0,VALID,89.03,VALID,0,VALID,22.2966,VALID,60,VALID,1.06133,
2009-09-15, 01:18:04,VALID,1000.28,VALID,0,VALID,89.1216,VALID,0,VALID,22.199,VALID,45,VALID,0.925,
2009-09-15, 01:19:04,VALID,1000.32,VALID,0,VALID,89.0834,VALID,0,VALID,22.121,VALID,60,VALID,0.432031,
2009-09-15, 01:20:04,VALID,1000.29,VALID,0,VALID,89.3657,VALID,0,VALID,22.1032,VALID,59,VALID,0.552734,
2009-09-15, 01:21:04,VALID,1000.29,VALID,0,VALID,89.4802,VALID,0,VALID,22.0235,VALID,59,VALID,0.600781,
2009-09-15, 01:22:04,VALID,1000.3,VALID,0,VALID,89.6938,VALID,0,VALID,22.0057,VALID,59,VALID,0.303906,
2009-09-15, 01:23:04,VALID,1000.28,VALID,0,VALID,89.8388,VALID,0,VALID,21.9455,VALID,59,VALID,0.566406,
2009-09-15, 01:24:04,VALID,1000.3,VALID,0,VALID,90.0753,VALID,0,VALID,21.926,VALID,59,VALID,0.375781,
2009-09-15, 01:25:04,VALID,1000.29,VALID,0,VALID,90.1363,VALID,0,VALID,21.9065,VALID,59,VALID,0.352734,
2009-09-15, 01:26:04,VALID,1000.27,VALID,0,VALID,90.4873,VALID,0,VALID,21.9082,VALID,59,VALID,0.491797,
2009-09-15, 01:27:04,VALID,1000.27,VALID,0,VALID,90.9756,VALID,0,VALID,21.926,VALID,59,VALID,0.484766,
2009-09-15, 01:28:04,VALID,1000.29,VALID,0,VALID,90.8459,VALID,0,VALID,21.965,VALID,59,VALID,0.432813,
2009-09-15, 01:29:04,VALID,1000.25,VALID,0,VALID,90.8077,VALID,0,VALID,21.9472,VALID,59,VALID,0.485156,
2009-09-15, 01:30:04,VALID,1000.22,VALID,0,VALID,91.0519,VALID,0,VALID,21.9455,VALID,59,VALID,0.398828,
2009-09-15, 01:31:04,VALID,1000.24,VALID,0,VALID,91.1892,VALID,0,VALID,21.9455,VALID,59,VALID,0.385938,
2009-09-15, 01:32:04,VALID,1000.2,VALID,0,VALID,91.4181,VALID,0,VALID,21.965,VALID,48,VALID,0.5125,
2009-09-15, 01:33:04,VALID,1000.18,VALID,0,VALID,91.5097,VALID,0,VALID,21.9845,VALID,21,VALID,0.510156,
2009-09-15, 01:34:04,VALID,1000.15,VALID,0,VALID,91.4715,VALID,0,VALID,22.0252,VALID,21,VALID,0.710938,
2009-09-15, 01:35:04,VALID,1000.14,VALID,0,VALID,91.5554,VALID,0,VALID,22.0252,VALID,21,VALID,0.672656,
2009-09-15, 01:36:04,VALID,1000.13,VALID,0,VALID,91.1663,VALID,0,VALID,21.965,VALID,21,VALID,0.375,
2009-09-15, 01:37:04,VALID,1000.14,VALID,0,VALID,91.09,VALID,0,VALID,21.9065,VALID,21,VALID,0.430078,
2009-09-15, 01:38:04,VALID,1000.12,VALID,0,VALID,91.7309,VALID,0,VALID,21.9082,VALID,21,VALID,0.420703,
2009-09-15, 01:39:04,VALID,1000.09,VALID,0,VALID,91.7309,VALID,0,VALID,21.9277,VALID,22,VALID,0.624219,
2009-09-15, 01:40:04,VALID,1000.07,VALID,0,VALID,92.1963,VALID,0,VALID,21.9455,VALID,47,VALID,0.780078,
2009-09-15, 01:41:04,VALID,1000.05,VALID,0,VALID,92.2574,VALID,0,VALID,22.0447,VALID,47,VALID,0.529297,
2009-09-15, 01:42:04,VALID,1000.04,VALID,0,VALID,92.0132,VALID,0,VALID,22.0642,VALID,47,VALID,0.178906,
2009-09-15, 01:43:04,VALID,1000.07,VALID,0,VALID,91.5249,VALID,0,VALID,22.004,VALID,47,VALID,0,
2009-09-15, 01:44:04,VALID,1000.04,VALID,0,VALID,91.5249,VALID,0,VALID,21.9845,VALID,47,VALID,0,
2009-09-15, 01:45:04,VALID,1000.01,VALID,0,VALID,91.853,VALID,0,VALID,21.9845,VALID,47,VALID,0.468359,
2009-09-15, 01:46:04,VALID,1000.02,VALID,0,VALID,91.9293,VALID,0,VALID,22.004,VALID,49,VALID,0.489062,
2009-09-15, 01:47:04,VALID,1000.02,VALID,0,VALID,92.0971,VALID,0,VALID,22.043,VALID,49,VALID,0.392578,
2009-09-15, 01:48:04,VALID,1000.02,VALID,0,VALID,92.0971,VALID,0,VALID,22.082,VALID,49,VALID,0.367188,
2009-09-15, 01:49:04,VALID,999.997,VALID,0,VALID,91.9674,VALID,0,VALID,22.1032,VALID,49,VALID,0.260938,
2009-09-15, 01:50:04,VALID,999.976,VALID,0,VALID,92.0209,VALID,0,VALID,22.1015,VALID,50,VALID,0.316406,
2009-09-15, 01:51:04,VALID,1000.01,VALID,0,VALID,92.0209,VALID,0,VALID,22.1405,VALID,50,VALID,0.196875,
2009-09-15, 01:52:04,VALID,999.991,VALID,0,VALID,91.8606,VALID,0,VALID,22.1405,VALID,50,VALID,0,
2009-09-15, 01:53:04,VALID,999.972,VALID,0,VALID,91.7309,VALID,0,VALID,22.1405,VALID,50,VALID,0,
2009-09-15, 01:54:04,VALID,999.972,VALID,0,VALID,91.7767,VALID,0,VALID,22.121,VALID,50,VALID,0,
2009-09-15, 01:55:04,VALID,999.967,VALID,0,VALID,91.9217,VALID,0,VALID,22.121,VALID,50,VALID,0,
2009-09-15, 01:56:04,VALID,999.96,VALID,0,VALID,91.998,VALID,0,VALID,22.1405,VALID,50,VALID,0.0523437,
2009-09-15, 01:57:04,VALID,999.942,VALID,0,VALID,92.0819,VALID,0,VALID,22.16,VALID,50,VALID,0.321484,
2009-09-15, 01:58:04,VALID,999.954,VALID,0,VALID,92.1124,VALID,0,VALID,22.1795,VALID,50,VALID,0.491406,
2009-09-15, 01:59:04,VALID,999.939,VALID,0,VALID,92.0132,VALID,0,VALID,22.1795,VALID,50,VALID,0.567969,
2009-09-15, 02:00:04,VALID,999.918,VALID,0,VALID,92.0514,VALID,0,VALID,22.1795,VALID,50,VALID,0.528125,
2009-09-15, 02:01:05,VALID,999.926,VALID,0,VALID,92.0514,VALID,0,VALID,22.199,VALID,50,VALID,0.732031,
2009-09-15, 02:02:05,VALID,999.915,VALID,0,VALID,91.5478,VALID,0,VALID,22.1405,VALID,50,VALID,0.794141,
2009-09-15, 02:03:05,VALID,999.932,VALID,0,VALID,91.4715,VALID,0,VALID,22.0803,VALID,50,VALID,0.779688,
2009-09-15, 02:04:05,VALID,999.916,VALID,0,VALID,91.9522,VALID,0,VALID,22.1015,VALID,54,VALID,0.899219,
2009-09-15, 02:05:05,VALID,999.904,VALID,0,VALID,91.5173,VALID,0,VALID,22.082,VALID,54,VALID,0.854688,
2009-09-15, 02:06:05,VALID,999.914,VALID,0,VALID,91.296,VALID,0,VALID,22.043,VALID,55,VALID,0.803906,
2009-09-15, 02:07:05,VALID,999.885,VALID,0,VALID,91.1663,VALID,0,VALID,21.9845,VALID,55,VALID,0.666016,
2009-09-15, 02:08:05,VALID,999.886,VALID,0,VALID,90.9527,VALID,0,VALID,21.926,VALID,55,VALID,0.514453,
2009-09-15, 02:09:05,VALID,999.843,VALID,0,VALID,90.8306,VALID,0,VALID,21.8285,VALID,55,VALID,0.365234,
2009-09-15, 02:10:05,VALID,999.843,VALID,0,VALID,90.8688,VALID,0,VALID,21.7293,VALID,55,VALID,0.245703,
2009-09-15, 02:11:05,VALID,999.836,VALID,0,VALID,90.9832,VALID,0,VALID,21.6725,VALID,55,VALID,0.1375,
2009-09-15, 02:12:05,VALID,999.869,VALID,0,VALID,91.38,VALID,0.112286,VALID,21.653,VALID,54,VALID,0.326953,
2009-09-15, 02:13:05,VALID,999.834,VALID,0,VALID,91.7843,VALID,0.112286,VALID,21.6513,VALID,55,VALID,0.237109,
2009-09-15, 02:14:05,VALID,999.84,VALID,0,VALID,91.8072,VALID,0,VALID,21.6513,VALID,55,VALID,0.1625,
2009-09-15, 02:15:05,VALID,999.839,VALID,0,VALID,91.853,VALID,0,VALID,21.692,VALID,54,VALID,0.295703,
2009-09-15, 02:16:05,VALID,999.837,VALID,0,VALID,91.9598,VALID,0,VALID,21.7115,VALID,55,VALID,0.268359,
2009-09-15, 02:17:05,VALID,999.793,VALID,0,VALID,91.914,VALID,0,VALID,21.692,VALID,54,VALID,0.598437,
2009-09-15, 02:18:05,VALID,999.788,VALID,0,VALID,92.0285,VALID,0.112286,VALID,21.7115,VALID,41,VALID,0.701172,
2009-09-15, 02:19:05,VALID,999.782,VALID,0,VALID,92.1963,VALID,0,VALID,21.7115,VALID,41,VALID,0.895703,
2009-09-15, 02:20:05,VALID,999.761,VALID,0,VALID,92.5168,VALID,0,VALID,21.7505,VALID,46,VALID,0.914063,
2009-09-15, 02:21:05,VALID,999.755,VALID,0,VALID,91.9674,VALID,0,VALID,21.7505,VALID,46,VALID,0.860547,
2009-09-15, 02:22:05,VALID,999.753,VALID,0,VALID,92.1124,VALID,0,VALID,21.7115,VALID,50,VALID,0.750781,
2009-09-15, 02:23:05,VALID,999.733,VALID,0,VALID,92.2497,VALID,0.112286,VALID,21.7293,VALID,50,VALID,0.478125,
2009-09-15, 02:24:05,VALID,999.741,VALID,0,VALID,91.792,VALID,0,VALID,21.692,VALID,51,VALID,0.915234,
2009-09-15, 02:25:05,VALID,999.722,VALID,0,VALID,91.502,VALID,0,VALID,21.653,VALID,56,VALID,0.813672,
2009-09-15, 02:26:05,VALID,999.725,VALID,0,VALID,91.7538,VALID,0.112286,VALID,21.575,VALID,71,VALID,1.24063,
2009-09-15, 02:27:05,VALID,999.683,VALID,0,VALID,91.8072,VALID,0,VALID,21.5165,VALID,76,VALID,1.05742,
2009-09-15, 02:28:05,VALID,999.654,VALID,0,VALID,92.1887,VALID,0,VALID,21.536,VALID,76,VALID,1.25234,
2009-09-15, 02:29:05,VALID,999.661,VALID,0,VALID,92.1887,VALID,0,VALID,21.536,VALID,76,VALID,1.16445,
2009-09-15, 02:30:05,VALID,999.626,VALID,0,VALID,92.1963,VALID,0,VALID,21.5148,VALID,76,VALID,1.12422,
2009-09-15, 02:31:05,VALID,999.63,VALID,0,VALID,92.4481,VALID,0,VALID,21.5555,VALID,76,VALID,1.29141,
2009-09-15, 02:32:05,VALID,999.594,VALID,0,VALID,92.4023,VALID,0,VALID,21.575,VALID,77,VALID,1.10469,
2009-09-15, 02:33:05,VALID,999.599,VALID,0,VALID,92.3642,VALID,0,VALID,21.575,VALID,77,VALID,1.05469,
2009-09-15, 02:34:05,VALID,999.606,VALID,0,VALID,92.1811,VALID,0,VALID,21.575,VALID,79,VALID,1.15781,
2009-09-15, 02:35:05,VALID,999.621,VALID,0,VALID,92.3031,VALID,0,VALID,21.575,VALID,87,VALID,1.20117,
2009-09-15, 02:36:05,VALID,999.616,VALID,0,VALID,92.2116,VALID,0,VALID,21.575,VALID,88,VALID,0.999609,
2009-09-15, 02:37:05,VALID,999.631,VALID,0,VALID,92.1887,VALID,0,VALID,21.575,VALID,88,VALID,0.864062,
2009-09-15, 02:38:05,VALID,999.602,VALID,0,VALID,92.4252,VALID,0,VALID,21.614,VALID,88,VALID,0.962109,
2009-09-15, 02:39:05,VALID,999.602,VALID,0,VALID,92.5168,VALID,0,VALID,21.6335,VALID,80,VALID,1.04297,
2009-09-15, 02:40:05,VALID,999.617,VALID,0,VALID,92.7151,VALID,0,VALID,21.7115,VALID,75,VALID,1.2293,
2009-09-15, 02:41:05,VALID,999.581,VALID,0,VALID,92.5702,VALID,0,VALID,21.77,VALID,75,VALID,0.627734,
2009-09-15, 02:42:05,VALID,999.587,VALID,0,VALID,92.204,VALID,0,VALID,21.7895,VALID,75,VALID,0.483594,
2009-09-15, 02:43:05,VALID,999.586,VALID,0,VALID,91.8301,VALID,0,VALID,21.731,VALID,74,VALID,0.2,
2009-09-15, 02:44:05,VALID,999.616,VALID,0,VALID,91.8683,VALID,0,VALID,21.7326,VALID,35,VALID,0.378516,
2009-09-15, 02:45:05,VALID,999.593,VALID,0,VALID,91.9217,VALID,0,VALID,21.7115,VALID,14,VALID,0.605078,
2009-09-15, 02:46:05,VALID,999.614,VALID,0,VALID,91.4334,VALID,0,VALID,21.6936,VALID,342,VALID,0.662109,
2009-09-15, 02:47:05,VALID,999.608,VALID,0,VALID,91.3266,VALID,0,VALID,21.6156,VALID,342,VALID,0.348828,
2009-09-15, 02:48:05,VALID,999.638,VALID,0,VALID,91.4791,VALID,0,VALID,21.5766,VALID,342,VALID,0.389062,
2009-09-15, 02:49:05,VALID,999.608,VALID,0,VALID,91.6546,VALID,0,VALID,21.5555,VALID,342,VALID,0.527734,
2009-09-15, 02:50:05,VALID,999.575,VALID,0,VALID,91.8072,VALID,0,VALID,21.5555,VALID,342,VALID,0.575781,
2009-09-15, 02:51:05,VALID,999.605,VALID,0,VALID,91.8072,VALID,0,VALID,21.5555,VALID,5,VALID,1.01445,
2009-09-15, 02:52:05,VALID,999.573,VALID,0,VALID,91.7157,VALID,0,VALID,21.575,VALID,18,VALID,0.848047,
2009-09-15, 02:53:05,VALID,999.566,VALID,0,VALID,91.3189,VALID,0,VALID,21.497,VALID,34,VALID,1.00703,
2009-09-15, 02:54:05,VALID,999.551,VALID,0,VALID,91.7538,VALID,0,VALID,21.458,VALID,34,VALID,0.759375,
2009-09-15, 02:55:05,VALID,999.54,VALID,0,VALID,91.9751,VALID,0,VALID,21.458,VALID,34,VALID,0.6375,
2009-09-15, 02:56:05,VALID,999.558,VALID,0,VALID,91.9522,VALID,0,VALID,21.4986,VALID,34,VALID,0.642578,
2009-09-15, 02:57:05,VALID,999.55,VALID,0,VALID,91.9903,VALID,0,VALID,21.458,VALID,34,VALID,0.567969,
2009-09-15, 02:58:05,VALID,999.536,VALID,0,VALID,91.9522,VALID,0,VALID,21.4385,VALID,34,VALID,0.654688,
2009-09-15, 02:59:05,VALID,999.556,VALID,0,VALID,92.1124,VALID,0,VALID,21.4385,VALID,34,VALID,0.699219,
2009-09-15, 03:00:05,VALID,999.547,VALID,0,VALID,92.3031,VALID,0,VALID,21.4385,VALID,34,VALID,0.545703,
2009-09-15, 03:01:05,VALID,999.565,VALID,0,VALID,92.2955,VALID,0,VALID,21.4596,VALID,34,VALID,0.265625,
2009-09-15, 03:02:05,VALID,999.572,VALID,0,VALID,92.3108,VALID,0,VALID,21.458,VALID,34,VALID,0.242188,
2009-09-15, 03:03:05,VALID,999.57,VALID,0,VALID,92.3413,VALID,0,VALID,21.458,VALID,34,VALID,0.316797,
2009-09-15, 03:04:05,VALID,999.579,VALID,0,VALID,92.3413,VALID,0,VALID,21.4986,VALID,34,VALID,0.200391,
2009-09-15, 03:05:05,VALID,999.596,VALID,0,VALID,92.3337,VALID,0,VALID,21.4986,VALID,34,VALID,0.387891,
2009-09-15, 03:06:05,VALID,999.595,VALID,0,VALID,92.3566,VALID,0,VALID,21.4986,VALID,34,VALID,0.545313,
2009-09-15, 03:07:05,VALID,999.579,VALID,0,VALID,92.3871,VALID,0,VALID,21.5181,VALID,34,VALID,0.364062,
2009-09-15, 03:08:05,VALID,999.59,VALID,0,VALID,92.3794,VALID,0,VALID,21.5376,VALID,34,VALID,0.0972656,
2009-09-15, 03:09:05,VALID,999.597,VALID,0,VALID,92.3108,VALID,0,VALID,21.5181,VALID,34,VALID,0.321094,
2009-09-15, 03:10:05,VALID,999.619,VALID,0,VALID,92.41,VALID,0,VALID,21.5571,VALID,34,VALID,0.393359,
2009-09-15, 03:11:05,VALID,999.609,VALID,0,VALID,92.6236,VALID,0,VALID,21.575,VALID,34,VALID,0.341797,
2009-09-15, 03:12:05,VALID,999.59,VALID,0,VALID,92.6617,VALID,0,VALID,21.6546,VALID,34,VALID,0.324609,
2009-09-15, 03:13:05,VALID,999.62,VALID,0,VALID,92.5702,VALID,0,VALID,21.653,VALID,34,VALID,0.0457031,
2009-09-15, 03:14:05,VALID,999.593,VALID,0,VALID,92.4939,VALID,0,VALID,21.6725,VALID,34,VALID,0.18125,
2009-09-15, 03:15:05,VALID,999.592,VALID,0,VALID,92.5168,VALID,0,VALID,21.692,VALID,34,VALID,0.260938,
2009-09-15, 03:16:05,VALID,999.612,VALID,0,VALID,92.5168,VALID,0,VALID,21.7326,VALID,34,VALID,0.0507813,
2009-09-15, 03:17:05,VALID,999.58,VALID,0,VALID,92.471,VALID,0,VALID,21.7716,VALID,66,VALID,0.461719,
2009-09-15, 03:18:05,VALID,999.56,VALID,0,VALID,92.6007,VALID,0,VALID,21.7895,VALID,131,VALID,0.782812,
2009-09-15, 03:19:05,VALID,999.541,VALID,0,VALID,92.5626,VALID,0,VALID,21.848,VALID,131,VALID,0.596484,
2009-09-15, 03:20:05,VALID,999.536,VALID,0,VALID,92.3566,VALID,0,VALID,21.848,VALID,131,VALID,0.705859,
2009-09-15, 03:21:05,VALID,999.521,VALID,0,VALID,92.3566,VALID,0,VALID,21.8675,VALID,134,VALID,0.764844,
2009-09-15, 03:22:05,VALID,999.481,VALID,0,VALID,92.2879,VALID,0,VALID,21.9277,VALID,143,VALID,1.02305,
2009-09-15, 03:23:05,VALID,999.541,VALID,0,VALID,92.1963,VALID,0,VALID,21.9667,VALID,145,VALID,0.985937,
2009-09-15, 03:24:05,VALID,999.498,VALID,0,VALID,92.0056,VALID,0,VALID,21.9862,VALID,144,VALID,0.928906,
2009-09-15, 03:25:05,VALID,999.531,VALID,0,VALID,91.8148,VALID,0,VALID,21.9845,VALID,137,VALID,1.21758,
2009-09-15, 03:26:05,VALID,999.522,VALID,0,VALID,91.4868,VALID,0,VALID,21.9862,VALID,121,VALID,1.08242,
2009-09-15, 03:27:05,VALID,999.511,VALID,0,VALID,91.1282,VALID,0,VALID,21.926,VALID,110,VALID,1.09102,
2009-09-15, 03:28:05,VALID,999.5,VALID,0,VALID,91.0519,VALID,0,VALID,21.8675,VALID,111,VALID,0.899609,
2009-09-15, 03:29:05,VALID,999.497,VALID,0,VALID,91.1206,VALID,0,VALID,21.8301,VALID,109,VALID,1.13086,
2009-09-15, 03:30:05,VALID,999.487,VALID,0,VALID,91.2121,VALID,0,VALID,21.7505,VALID,109,VALID,0.865625,
2009-09-15, 03:31:05,VALID,999.459,VALID,0,VALID,91.3723,VALID,0,VALID,21.7326,VALID,103,VALID,1.04062,
2009-09-15, 03:32:05,VALID,999.416,VALID,0,VALID,91.8072,VALID,0,VALID,21.7326,VALID,81,VALID,0.992969,
2009-09-15, 03:33:05,VALID,999.426,VALID,0,VALID,91.441,VALID,0,VALID,21.7115,VALID,76,VALID,0.921875,
2009-09-15, 03:34:05,VALID,999.442,VALID,0,VALID,90.884,VALID,0,VALID,21.614,VALID,61,VALID,0.758203,
2009-09-15, 03:35:05,VALID,999.462,VALID,0,VALID,90.3728,VALID,0,VALID,21.458,VALID,46,VALID,0.617578,
2009-09-15, 03:36:05,VALID,999.468,VALID,0,VALID,90.3652,VALID,0,VALID,21.3231,VALID,32,VALID,0.549219,
2009-09-15, 03:37:05,VALID,999.473,VALID,0,VALID,90.7162,VALID,0,VALID,21.1655,VALID,355,VALID,0.941797,
2009-09-15, 03:38:05,VALID,999.498,VALID,0,VALID,90.9069,VALID,0,VALID,21.1086,VALID,320,VALID,0.695313,
2009-09-15, 03:39:05,VALID,999.482,VALID,0,VALID,91.5173,VALID,0,VALID,21.068,VALID,298,VALID,0.827344,
2009-09-15, 03:40:05,VALID,999.478,VALID,0,VALID,92.1429,VALID,0,VALID,21.1671,VALID,279,VALID,0.783203,
2009-09-15, 03:41:05,VALID,999.493,VALID,0,VALID,92.2879,VALID,0,VALID,21.2451,VALID,281,VALID,0.196875,
2009-09-15, 03:42:05,VALID,999.471,VALID,0,VALID,92.2116,VALID,0,VALID,21.2646,VALID,330,VALID,0.428125,
2009-09-15, 03:43:05,VALID,999.476,VALID,0,VALID,92.2345,VALID,0,VALID,21.2646,VALID,50,VALID,0.767578,
2009-09-15, 03:44:05,VALID,999.459,VALID,0,VALID,92.1277,VALID,0,VALID,21.2646,VALID,54,VALID,0.6625,
2009-09-15, 03:45:05,VALID,999.473,VALID,0,VALID,92.0361,VALID,0,VALID,21.2646,VALID,54,VALID,0.622656,
2009-09-15, 03:46:05,VALID,999.455,VALID,0,VALID,91.9217,VALID,0,VALID,21.2646,VALID,54,VALID,0.589453,
2009-09-15, 03:47:05,VALID,999.474,VALID,0,VALID,91.586,VALID,0,VALID,21.2077,VALID,49,VALID,0.805469,